Regional Weather Roundup
Issued by NWS

Home | Current Version | Previous Version | Text Only | Print | Product List | Glossary Off
Versions: 1 2 3 4 5 6 7 8 9 10 11 12 13 14 15 16 17 18 19 20 21 22 23 24 25 26 27 28 29 30 31 32 33 34 35 36 37 38 39 40 41 42 43 44 45 46 47 48 49 50

000
ASUS43 KIND 270609
RWRIN

WEATHER ROUNDUP FOR INDIANA
NATIONAL WEATHER SERVICE INDIANAPOLIS IN
200 AM EDT FRI MAR 27 2015

NOTE: "FAIR" INDICATES FEW OR NO CLOUDS BELOW 12,000 FEET WITH NO
SIGNIFICANT WEATHER AND/OR OBSTRUCTIONS TO VISIBILITY.

* - STATION DOES NOT REPORT WEATHER SUCH AS PRECIPITATION OR FOG.

+ - STATION NOT QUALITY CONTROLLED BY THE NATIONAL WEATHER SERVICE.
    USE DATA WITH CAUTION...ESPECIALLY DEWPOINT AND RELATIVE
    HUMIDITY OBSERVATIONS.

INZ001>003-010>013-019-020-270700-
NORTHWEST INDIANA

CITY           SKY/WX    TMP DP  RH WIND       PRES   REMARKS
GARY /AIRPORT/ CLOUDY    34  18  51 N15       30.07S WCI  25
KNOX *+          N/A     32  16  51 N13       30.02F WCI  22
LA PORTE +     FLURRIES  32  27  80 N13G22    30.03F WCI  23
6HR MIN TEMP:  32; 6HR MAX TEMP:  37;

MICHIGAN CITY+ CLOUDY    30  21  69 N13G22    30.05S WCI  20
MONTICELLO +   FAIR      30  26  86 N9        30.01S WCI  22
6HR MIN TEMP:  30; 6HR MAX TEMP:  39;

RENSSELAER +   MOCLDY    32  32 100 N14       30.04S WCI  22
VALPARAISO     CLOUDY    31  21  66 N14G22    30.03F WCI  21
6HR MIN TEMP:  31; 6HR MAX TEMP:  35; 6HR PCP: TRACE;


$$

LMZ046-743>745-270700-
SOUTHERN LAKE MICHIGAN

STATION/POSITION TIME  TEMP WIND        PRES
                       AIR  DIR/SP/G
                 (UTC) (F)  (DEG/KT/KT) (MB)
BURNS HARBOR     0600   31   20/ 18/ 22 1017.9S
MICHIGAN CITY    0600   30  360/ 23/ 26   N/A

$$

INZ004-005-014>016-021>024-270700-
NORTH CENTRAL INDIANA

CITY           SKY/WX    TMP DP  RH WIND       PRES   REMARKS
GOSHEN         CLOUDY    31  23  72 NW10      29.99F WCI  22
6HR MIN TEMP:  31; 6HR MAX TEMP:  36;

LOGANSPORT +   FAIR      30  27  86 N3        30.02R
PERU/GRISSOM   CLEAR     30  24  77 N3        29.99S
6HR MIN TEMP:  30; 6HR MAX TEMP:  39;

ROCHESTER +    MOCLDY    32  30  93 N9        30.01S WCI  24
SOUTH BEND     CLOUDY    31  25  78 N15G22    30.02F WCI  20
6HR MIN TEMP:  31; 6HR MAX TEMP:  36;

WARSAW +       CLOUDY    30  27  86 N6        29.99F WCI  24

$$

INZ006>009-017-018-025>027-270700-
NORTHEAST INDIANA

CITY           SKY/WX    TMP DP  RH WIND       PRES   REMARKS
ANGOLA *+      CLOUDY    30  25  80 NW7       29.96F WCI  23
AUBURN +       CLOUDY    32  25  74 W3        29.99S
FORT WAYNE     PTCLDY    30  24  78 NW5       30.00F WCI  25
6HR MIN TEMP:  29; 6HR MAX TEMP:  37;

HUNTINGTON +   CLEAR     29  22  73 CALM      29.99F
6HR MIN TEMP:  29; 6HR MAX TEMP:  37;


$$

INZ028-029-035-036-043>045-051>053-270700-
WEST CENTRAL INDIANA

CITY           SKY/WX    TMP DP  RH WIND       PRES   REMARKS
CRAWFORDSVL +  CLEAR     29  21  71 MISG      30.01R
6HR MIN TEMP:  29; 6HR MAX TEMP:  38;

GREENCASTLE +  CLEAR     32  23  69 N5        30.01S WCI  27
LAFAYETTE      CLEAR     30  25  81 N5        30.02S WCI  25
6HR MIN TEMP:  30; 6HR MAX TEMP:  41;

TERRE HAUTE    CLEAR     33  27  78 N3        30.02S
6HR MIN TEMP:  32; 6HR MAX TEMP:  44;


$$

INZ030>032-037>040-046>048-054>057-064-065-270700-
CENTRAL INDIANA

CITY           SKY/WX    TMP DP  RH WIND       PRES   REMARKS
CP ATTERBURY + CLEAR     32  28  86 CALM      30.00S
FISHERS *+     CLEAR     32  28  86 CALM      30.00S
FRANKFORT +    CLEAR     32  28  83 N7        30.02S WCI  26
6HR MIN TEMP:  32; 6HR MAX TEMP:  41;

GREENWOOD *+   CLEAR     32  25  74 N3        30.00
INDIANAPOLIS   CLEAR     32  25  75 N7        29.98S WCI  26
6HR MIN TEMP:  32; 6HR MAX TEMP:  42;

-EAGLE CREEK   CLEAR     32  24  72 N3        29.99S
6HR MIN TEMP:  31; 6HR MAX TEMP:  42;

KOKOMO *+        N/A     30  25  80 N6        30.00F WCI  24
6HR MIN TEMP:  30; 6HR MAX TEMP:  39;

MARION +       CLOUDY    31  26  79 N6        30.00F WCI  26
MT COMFORT *+  CLEAR     32  21  64 N8        29.99F WCI  25
SHELBYVILLE    CLEAR     35  27  72 NE6       29.99S WCI  30
6HR MIN TEMP:  34; 6HR MAX TEMP:  42;

ZIONSVILLE +   CLEAR     31  26  79 N3        30.00S
6HR MIN TEMP:  31; 6HR MAX TEMP:  42;


$$

INZ033-034-041-042-049-050-058-059-270700-
EAST CENTRAL INDIANA

CITY           SKY/WX    TMP DP  RH WIND       PRES   REMARKS
MUNCIE         CLOUDY    33  27  78 MISG      29.99S
6HR MIN TEMP:  33; 6HR MAX TEMP:  41;


$$

INZ060-061-067>069-081>083-085>088-270700-
SOUTHWEST INDIANA

CITY           SKY/WX    TMP DP  RH WIND       PRES   REMARKS
EVANSVILLE     CLEAR     37  31  78 CALM      30.03S
6HR MIN TEMP:  35; 6HR MAX TEMP:  44;

HUNTINGBURG *+ CLEAR     34  28  80 CALM      30.02S
6HR MIN TEMP:  34; 6HR MAX TEMP:  43;

WASHINGTON +   CLEAR     34  30  85 NW3       30.01S
6HR MIN TEMP:  33; 6HR MAX TEMP:  42;


$$

INZ062-063-066-070>080-084-089>092-270700-
SOUTH CENTRAL AND SOUTHEAST INDIANA

CITY           SKY/WX    TMP DP  RH WIND       PRES   REMARKS
BEDFORD +      CLEAR     34  30  86 CALM      30.00F
BLOOMINGTON    PTCLDY    33  27  78 CALM      29.99F
6HR MIN TEMP:  32; 6HR MAX TEMP:  42;

NORTH VERNON + CLEAR     36  30  80 NW5       29.99S
SEYMOUR +      CLEAR     37  30  75 NW3       30.00F

$$




USA.gov is the U.S. government's official web portal to all federal, state and local government web resources and services.